TimeIST,TemperatureF,Dew PointF,Humidity,Sea Level PressureIn,VisibilityMPH,Wind Direction,Wind SpeedMPH,Gust SpeedMPH,PrecipitationIn,Events,Conditions,WindDirDegrees,DateUTC
12:10 AM,82.4,75.2,79,29.80,3.1,SSW,4.6,-,N/A,,Haze,210,2012-10-08 18:40:00
1:10 AM,77.0,71.6,83,29.80,3.1,WNW,16.1,-,N/A,,Haze,290,2012-10-08 19:40:00
1:40 AM,77.0,69.8,78,29.80,3.1,West,15.0,-,N/A,,Haze,280,2012-10-08 20:10:00
2:10 AM,75.2,71.6,89,29.80,2.5,WNW,16.1,-,N/A,Rain,Light Rain,300,2012-10-08 20:40:00
2:30 AM,75,72,86,29.81,1,WNW,9.2,,,Rain,Light Rain,290,2012-10-08 21:00:00
2:40 AM,75.2,71.6,89,29.80,2.5,NW,6.9,-,N/A,,Drizzle,320,2012-10-08 21:10:00
4:10 AM,75.2,71.6,89,29.77,3.1,NW,6.9,-,N/A,,Haze,320,2012-10-08 22:40:00
5:10 AM,75.2,71.6,89,29.77,3.1,WNW,4.6,-,N/A,,Haze,290,2012-10-08 23:40:00
5:30 AM,74,73,95,29.78,2,West,4.6,,,,Haze,270,2012-10-09 00:00:00
6:10 AM,75.2,73.4,94,29.80,2.5,West,6.9,-,N/A,,Haze,280,2012-10-09 00:40:00
7:10 AM,75.2,73.4,94,29.80,2.5,WNW,5.8,-,N/A,,Haze,290,2012-10-09 01:40:00
8:10 AM,78.8,73.4,83,29.83,2.5,WNW,6.9,-,N/A,,Haze,290,2012-10-09 02:40:00
8:30 AM,78,74,84,29.82,2,WNW,6.9,,,,Haze,290,2012-10-09 03:00:00
8:40 AM,78.8,73.4,83,29.83,2.5,WNW,6.9,-,N/A,,Haze,290,2012-10-09 03:10:00
9:10 AM,78.8,73.4,83,29.80,2.5,WNW,10.4,-,N/A,,Haze,290,2012-10-09 03:40:00
10:10 AM,84.2,73.4,70,29.80,3.7,WNW,15.0,-,N/A,,Scattered Clouds,300,2012-10-09 04:40:00
10:40 AM,86.0,73.4,66,29.80,3.7,West,15.0,-,N/A,,Scattered Clouds,280,2012-10-09 05:10:00
11:10 AM,86.0,73.4,66,29.80,5.0,West,15.0,-,N/A,,Scattered Clouds,280,2012-10-09 05:40:00
11:30 AM,87,76,64,29.78,2,WNW,10.4,,,,Haze,290,2012-10-09 06:00:00
11:40 AM,86.0,75.2,70,29.77,5.0,WNW,12.7,-,N/A,,Scattered Clouds,290,2012-10-09 06:10:00
12:40 PM,87.8,75.2,66,29.74,5.0,WNW,9.2,-,N/A,,Partly Cloudy,290,2012-10-09 07:10:00
1:10 PM,87.8,75.2,66,29.74,5.0,WNW,10.4,-,N/A,,Partly Cloudy,300,2012-10-09 07:40:00
1:40 PM,89.6,73.4,59,29.71,5.0,WNW,9.2,-,N/A,,Partly Cloudy,300,2012-10-09 08:10:00
2:10 PM,91.4,73.4,55,29.71,5.0,NW,5.8,-,N/A,,Partly Cloudy,310,2012-10-09 08:40:00
2:30 PM,91,72,44,29.68,2,WNW,6.9,,,,Haze,290,2012-10-09 09:00:00
2:40 PM,91.4,73.4,55,29.68,5.0,WNW,6.9,-,N/A,,Partly Cloudy,300,2012-10-09 09:10:00
3:10 PM,93.2,73.4,52,29.68,5.0,NNW,3.5,-,N/A,,Partly Cloudy,340,2012-10-09 09:40:00
3:40 PM,93.2,73.4,52,29.68,5.0,North,6.9,-,N/A,,Scattered Clouds,360,2012-10-09 10:10:00
4:10 PM,91.4,73.4,55,29.68,5.0,NNW,5.8,-,N/A,,Scattered Clouds,340,2012-10-09 10:40:00
4:40 PM,91.4,73.4,55,29.68,5.0,NNE,5.8,-,N/A,,Scattered Clouds,20,2012-10-09 11:10:00
5:10 PM,91.4,73.4,55,29.68,5.0,NNE,4.6,-,N/A,,Partly Cloudy,20,2012-10-09 11:40:00
5:30 PM,82,77,82,29.72,2,East,16.1,,,,Haze,90,2012-10-09 12:00:00
5:40 PM,91.4,73.4,55,29.68,3.7,NNE,4.6,-,N/A,,Partly Cloudy,20,2012-10-09 12:10:00
6:10 PM,89.6,73.4,59,29.71,3.7,Calm,Calm,-,N/A,,Partly Cloudy,0,2012-10-09 12:40:00
6:40 PM,87.8,73.4,62,29.71,3.7,Calm,Calm,-,N/A,,Scattered Clouds,0,2012-10-09 13:10:00
7:10 PM,87.8,75.2,66,29.74,3.7,SSE,9.2,-,N/A,,Mostly Cloudy,150,2012-10-09 13:40:00
7:40 PM,86.0,73.4,66,29.77,3.7,SSE,9.2,-,N/A,,Scattered Clouds,160,2012-10-09 14:10:00
8:10 PM,86.0,73.4,66,29.77,3.7,South,5.8,-,N/A,,Scattered Clouds,170,2012-10-09 14:40:00
8:30 PM,83,72,63,29.76,2,SSE,5.8,,,,Partly Cloudy,160,2012-10-09 15:00:00
8:40 PM,84.2,73.4,70,29.80,3.7,South,6.9,-,N/A,,Scattered Clouds,180,2012-10-09 15:10:00
9:10 PM,82.4,73.4,74,29.80,3.7,SSW,6.9,-,N/A,,Scattered Clouds,210,2012-10-09 15:40:00
9:40 PM,82.4,73.4,74,29.83,3.7,SW,4.6,-,N/A,,Scattered Clouds,230,2012-10-09 16:10:00
10:40 PM,78.8,77.0,94,29.83,1.2,NNW,4.6,-,N/A,Rain-Thunderstorm,Thunderstorms and Rain,340,2012-10-09 17:10:00
11:10 PM,78.8,77.0,94,29.83,1.2,WNW,8.1,-,N/A,Rain-Thunderstorm,Thunderstorms and Rain,300,2012-10-09 17:40:00
11:30 PM,78,73,80,29.83,1,West,11.5,,,Hail-Thunderstorm,Thunderstorms with Hail,270,2012-10-09 18:00:00
11:40 PM,77.0,73.4,89,29.83,1.2,West,15.0,-,N/A,Rain-Thunderstorm,Thunderstorms and Rain,260,2012-10-09 18:10:00